Location: Holcomb Observatory and Planetarium
(39.8415°N, 86.1714°W)
Time: 18:45:12

Hubble Space Telescope - Visible Passes

Search period start: 01 December 2015 00:00
Search period end: 11 December 2015 00:00
Orbit: 540 x 544 km, 28.5° (Epoch: 01 December)

Date Brightness Start Highest point End Pass type
(mag) Time Alt. Az. Time Alt. Az. Time Alt. Az.
05 Dec 3.7 06:38:06 10° S 06:39:02 11° SSE 06:40:03 10° SSE visible
06 Dec 3.5 06:27:57 10° SSW 06:29:40 12° SSE 06:31:27 10° SE visible
07 Dec 3.4 06:18:10 10° SSW 06:20:19 14° S 06:22:30 10° SE visible
08 Dec 3.3 06:08:32 10° SSW 06:10:57 15° S 06:13:24 10° SE visible
09 Dec 3.1 05:59:55 13° SSW 06:01:36 16° S 06:04:12 10° SE visible
10 Dec 2.9 05:51:21 16° SSW 05:52:14 17° S 05:54:56 10° SE visible
